, CA

(GMT )
Point Mugu

Weather History for KNTD - March, 2012

Change the Weather History Date:

Saturday, March 31, 2012

  Actual Average Record
Temperature  
Mean Temperature 56 °F -  
Max Temperature 62 °F 60 °F 75 °F (2005)
Min Temperature 51 °F 45 °F 36 °F (2009)
Degree Days  
Heating Degree Days 9    
Growing Degree Days 6 (Base 50)    
Moisture  
Dew Point 52 °F    
Average Humidity 91    
Maximum Humidity 100    
Minimum Humidity 75    
Precipitation  
Precipitation 0.13 in - - ()
Sea Level Pressure  
Sea Level Pressure 30.01 in    
Wind  
Wind Speed 10 mph (SSW)    
Max Wind Speed 21 mph    
Max Gust Speed 31 mph    
Visibility 3 miles    
Events Fog , Rain    
Averages and records for this station are not official NWS values.
T = Trace of Precipitation, MM = Missing Value Source: NWS Daily Summary

Daily Weather History Graph

Daily Weather History Graph

Search for Another Location

Airport or City:

Trip Planner

Search our weather history database for the weather conditions in past years. The results will help you decide how hot, cold, wet, or windy it might be!

Date:

Astronomy

Mar. 31, 2012 Rise Set
Actual Time 6:44 AM PDT 7:17 PM PDT
Civil Twilight 6:19 AM PDT 7:42 PM PDT
Nautical Twilight 5:49 AM PDT 8:11 PM PDT
Astronomical Twilight 5:19 AM PDT 8:42 PM PDT
Moon 1:06 PM PDT (3/31) 2:27 AM PDT (3/31)
Length of Visible Light 13h 23m
Length of Day
12h 32m
First Quarter, 60% of the Moon is Illuminated
Mar 31
First Quarter
Apr 6
Full
Apr 13
Last Quarter
Apr 21
New
Apr 29
First Quarter

Hourly Weather History & Observations

Time (PDT) Temp. Dew Point Humidity Pressure Visibility Wind Dir Wind Speed Gust Speed Precip Events Conditions
12:05 AM 53.6 °F 51.8 °F 94% 30.00 in - Variable 4.6 mph - N/A   Overcast
12:54 AM 52.0 °F 52.0 °F 100% 30.00 in - South 5.8 mph - N/A   Overcast
1:37 AM 53.6 °F 51.8 °F 94% 29.99 in - South 9.2 mph - N/A   Overcast
1:54 AM 53.1 °F 53.1 °F 100% 29.99 in - South 10.4 mph - N/A   Overcast
2:54 AM 53.1 °F 52.0 °F 96% 30.00 in - SSE 6.9 mph - N/A   Overcast
3:54 AM 53.1 °F 52.0 °F 96% 29.99 in - Variable 4.6 mph - N/A   Overcast
5:54 AM 53.1 °F 52.0 °F 96% 30.01 in 0.5 mi SSW 8.1 mph - 0.00 in Fog Light Drizzle
6:54 AM 53.1 °F 53.1 °F 100% 30.01 in 1.0 mi SSE 9.2 mph - N/A   Overcast
7:54 AM 53.1 °F 53.1 °F 100% 30.03 in 3.0 mi East 10.4 mph - N/A   Overcast
8:24 AM 53.6 °F 53.6 °F 100% 30.03 in 1.0 mi East 9.2 mph - N/A   Light Drizzle
8:54 AM 54.0 °F 53.1 °F 97% 30.02 in 1.0 mi East 10.4 mph - N/A Rain Light Rain
9:54 AM 54.0 °F 52.0 °F 93% 30.04 in 2.0 mi South 9.2 mph - N/A   Overcast
10:54 AM 55.9 °F 55.0 °F 97% 30.06 in 3.0 mi SSE 11.5 mph - 0.00 in   Overcast
11:54 AM 55.9 °F 53.1 °F 90% 30.07 in 4.0 mi Variable 5.8 mph - N/A   Overcast
12:13 PM 57.2 °F 53.6 °F 88% 30.07 in 4.0 mi Variable 5.8 mph - N/A   Overcast
12:54 PM 59.0 °F 53.1 °F 81% 30.05 in 5.0 mi South 11.5 mph 16.1 mph N/A   Haze
1:22 PM 60.8 °F 53.6 °F 77% 30.03 in 5.0 mi SSE 17.3 mph - N/A   Haze
1:54 PM 61.0 °F 53.1 °F 75% 30.02 in 5.0 mi South 15.0 mph - N/A   Haze
2:54 PM 59.0 °F 52.0 °F 78% 30.02 in 6.0 mi South 19.6 mph - N/A   Haze
3:54 PM 57.9 °F 52.0 °F 81% 30.01 in 6.0 mi South 18.4 mph - N/A   Haze
4:54 PM 57.0 °F 52.0 °F 83% 30.00 in 5.0 mi SSE 15.0 mph - N/A   Haze
5:02 PM 57.2 °F 51.8 °F 82% 29.99 in - SSE 16.1 mph - N/A   Haze
5:54 PM 55.9 °F 53.1 °F 90% 29.99 in 3.0 mi SSE 15.0 mph 21.9 mph 0.00 in Rain Light Rain
6:09 PM 55.4 °F 51.8 °F 88% 29.99 in 1.2 mi SE 11.5 mph - N/A Rain Light Rain
6:21 PM 51.8 °F 50.0 °F 94% 30.01 in 1.2 mi SW 13.8 mph 20.7 mph N/A Rain Heavy Rain
6:27 PM 51.8 °F 50.0 °F 94% 30.00 in 1.2 mi WSW 12.7 mph - N/A Rain Light Rain
6:37 PM 51.8 °F 51.8 °F 100% 29.99 in 2.0 mi West 16.1 mph 28.8 mph N/A Rain Light Rain
6:54 PM 52.0 °F 51.1 °F 97% 30.00 in 2.5 mi West 20.7 mph 31.1 mph 0.12 in Rain Light Rain
7:01 PM 51.8 °F 51.8 °F 100% 29.99 in 2.5 mi West 20.7 mph 31.1 mph 0.00 in Rain Light Rain
7:19 PM 51.8 °F 51.8 °F 100% 29.99 in 2.5 mi West 17.3 mph 25.3 mph 0.00 in Rain Light Rain
7:54 PM 52.0 °F 51.1 °F 97% 29.99 in 5.0 mi NW 10.4 mph - 0.01 in   Overcast
8:54 PM 53.1 °F 48.9 °F 86% 30.00 in 5.0 mi West 11.5 mph - N/A   Overcast
9:54 PM 53.1 °F 46.9 °F 80% 30.01 in 7.0 mi West 17.3 mph 26.5 mph N/A   Scattered Clouds
10:54 PM 52.0 °F 46.0 °F 80% 30.01 in 7.0 mi West 18.4 mph 24.2 mph N/A   Clear
11:54 PM 52.0 °F 46.9 °F 83% 30.03 in - West 13.8 mph 27.6 mph N/A   Clear